Location: Cisewo
(53.3833°N, 14.9000°E)
Time: 13:13:12
(UTC+00:00)

Cosmos 1271 Rocket - Pass Details

Date: 18 April 2021
Orbit: 498 x 544 km, 81.2° (Epoch: 16 May)

Event Time Altitude Azimuth Distance (km) Brightness Sun altitude
Exits shadow 23:53:45 55° 61° (ENE) 645 3.3 -24.4°
Drops below altitude 10° 23:57:08 10° 19° (NNE) 1,796 6.5 -24.3°
Sets 23:59:20 0° 16° (NNE) 2,699 7.8 -24.2°
